TimeEST,TemperatureF,Dew PointF,Humidity,Sea Level PressureIn,VisibilityMPH,Wind Direction,Wind SpeedMPH,Gust SpeedMPH,PrecipitationIn,Events,Conditions,WindDirDegrees,DateUTC
12:15 AM,44.6,42.8,93,30.03,1.2,Calm,Calm,-,N/A,,Overcast,0,2012-12-09 05:15:00
12:35 AM,44.6,42.8,93,30.03,1.5,South,3.5,-,N/A,,Overcast,170,2012-12-09 05:35:00
12:55 AM,44.6,42.8,93,30.04,1.8,Calm,Calm,-,N/A,,Overcast,0,2012-12-09 05:55:00
1:15 AM,44.6,42.8,93,30.05,1.8,Calm,Calm,-,N/A,,Scattered Clouds,0,2012-12-09 06:15:00
1:35 AM,42.8,41.0,93,30.06,0.8,Calm,Calm,-,N/A,,Mist,0,2012-12-09 06:35:00
2:15 AM,42.8,42.8,100,30.08,1.8,Calm,Calm,-,N/A,,Overcast,0,2012-12-09 07:15:00
2:35 AM,42.8,41.0,93,30.08,1.2,NNW,3.5,-,N/A,,Mostly Cloudy,330,2012-12-09 07:35:00
2:55 AM,42.8,41.0,93,30.08,0.2,Calm,Calm,-,N/A,Fog,Fog,0,2012-12-09 07:55:00
3:15 AM,42.8,41.0,93,30.08,1.0,South,3.5,-,N/A,,Mostly Cloudy,170,2012-12-09 08:15:00
3:35 AM,42.8,41.0,93,30.08,2.0,Calm,Calm,-,N/A,,Clear,0,2012-12-09 08:35:00
3:55 AM,41.0,39.2,93,30.08,1.0,Calm,Calm,-,N/A,,Mist,0,2012-12-09 08:55:00
4:15 AM,39.2,37.4,93,30.09,0.2,Calm,Calm,-,N/A,Fog,Fog,0,2012-12-09 09:15:00
4:35 AM,41.0,37.4,87,30.11,0.2,Calm,Calm,-,N/A,Fog,Fog,0,2012-12-09 09:35:00
4:55 AM,39.2,37.4,93,30.13,0.2,Calm,Calm,-,N/A,Fog,Fog,0,2012-12-09 09:55:00
5:15 AM,39.2,37.4,93,30.13,0.5,North,4.6,-,N/A,Fog,Fog,10,2012-12-09 10:15:00
5:35 AM,39.2,37.4,93,30.14,2.0,North,4.6,-,N/A,,Clear,10,2012-12-09 10:35:00
5:55 AM,41.0,39.2,93,30.16,5.0,North,6.9,-,N/A,,Clear,10,2012-12-09 10:55:00
6:15 AM,41.0,39.2,93,30.19,10.0,North,4.6,-,N/A,,Clear,10,2012-12-09 11:15:00
6:35 AM,41.0,39.2,93,30.20,10.0,Calm,Calm,-,N/A,,Mostly Cloudy,0,2012-12-09 11:35:00
6:55 AM,41.0,39.2,93,30.19,10.0,NNE,5.8,-,N/A,,Overcast,30,2012-12-09 11:55:00
7:15 AM,41.0,39.2,93,30.19,10.0,NE,4.6,-,N/A,,Overcast,50,2012-12-09 12:15:00
7:35 AM,41.0,39.2,93,30.21,10.0,North,3.5,-,N/A,,Mostly Cloudy,360,2012-12-09 12:35:00
7:55 AM,42.8,37.4,81,30.21,10.0,ENE,4.6,-,N/A,Rain,Light Rain,60,2012-12-09 12:55:00
8:15 AM,42.8,37.4,81,30.22,10.0,NNE,5.8,-,N/A,Rain,Light Rain,30,2012-12-09 13:15:00
8:35 AM,42.8,37.4,81,30.22,10.0,NE,4.6,-,N/A,,Overcast,40,2012-12-09 13:35:00
8:55 AM,42.8,37.4,81,30.23,10.0,NE,8.1,-,N/A,Rain,Rain,50,2012-12-09 13:55:00
9:35 AM,41.0,35.6,81,30.26,10.0,NNE,3.5,-,N/A,,Drizzle,30,2012-12-09 14:35:00
9:55 AM,41.0,35.6,81,30.27,10.0,Calm,Calm,-,N/A,Rain,Rain,0,2012-12-09 14:55:00
10:15 AM,41.0,35.6,81,30.24,10.0,ENE,11.5,-,0.01,Rain,Light Rain,60,2012-12-09 15:15:00
10:35 AM,41.0,35.6,81,30.24,10.0,NNE,8.1,-,0.01,Rain,Light Rain,30,2012-12-09 15:35:00
10:55 AM,41.0,35.6,81,30.24,10.0,NE,8.1,-,0.01,Rain,Light Rain,50,2012-12-09 15:55:00
11:35 AM,41.0,35.6,81,30.22,10.0,NE,6.9,-,N/A,Rain,Light Rain,40,2012-12-09 16:35:00
11:55 AM,41.0,35.6,81,30.22,10.0,NE,8.1,-,N/A,,Light Drizzle,50,2012-12-09 16:55:00
12:15 PM,41.0,33.8,76,30.21,10.0,NE,8.1,-,N/A,Rain,Light Rain,40,2012-12-09 17:15:00
12:35 PM,41.0,35.6,81,30.20,10.0,NE,8.1,-,N/A,Rain,Light Rain,50,2012-12-09 17:35:00
12:55 PM,41.0,35.6,81,30.19,10.0,NE,6.9,-,N/A,Rain,Light Rain,40,2012-12-09 17:55:00
1:15 PM,41.0,35.6,81,30.19,10.0,NE,9.2,-,N/A,Rain,Light Rain,40,2012-12-09 18:15:00
1:35 PM,41.0,35.6,81,30.19,10.0,NE,8.1,-,N/A,Rain,Light Rain,50,2012-12-09 18:35:00
1:55 PM,41.0,35.6,81,30.18,10.0,NE,6.9,-,N/A,,Drizzle,50,2012-12-09 18:55:00
2:15 PM,41.0,35.6,81,30.18,10.0,NE,8.1,-,N/A,Rain,Light Rain,50,2012-12-09 19:15:00
2:35 PM,41.0,37.4,87,30.19,10.0,NE,8.1,-,N/A,Rain,Light Rain,40,2012-12-09 19:35:00
2:55 PM,41.0,37.4,87,30.19,7.0,NE,6.9,-,N/A,,Drizzle,40,2012-12-09 19:55:00
3:35 PM,41.0,37.4,87,30.19,4.0,NE,8.1,-,0.01,Rain,Light Rain,50,2012-12-09 20:35:00
3:55 PM,41.0,37.4,87,30.19,4.0,NE,4.6,-,0.01,,Drizzle,40,2012-12-09 20:55:00
4:15 PM,41.0,37.4,87,30.19,5.0,NE,4.6,-,N/A,Rain,Rain,40,2012-12-09 21:15:00
4:35 PM,41.0,37.4,87,30.19,5.0,East,6.9,-,0.01,Rain,Rain,100,2012-12-09 21:35:00
4:55 PM,39.2,35.6,87,30.19,5.0,NE,9.2,-,0.01,,Light Drizzle,50,2012-12-09 21:55:00
5:15 PM,39.2,35.6,87,30.18,5.0,NE,5.8,-,N/A,,Light Drizzle,50,2012-12-09 22:15:00
5:35 PM,37.4,35.6,93,30.19,4.0,NNE,4.6,-,N/A,,Light Drizzle,20,2012-12-09 22:35:00
5:55 PM,37.4,35.6,93,30.18,5.0,NE,4.6,-,N/A,,Overcast,50,2012-12-09 22:55:00
6:15 PM,37.4,35.6,93,30.18,5.0,NNE,4.6,-,N/A,,Overcast,20,2012-12-09 23:15:00
6:35 PM,37.4,35.6,93,30.16,3.0,NNE,6.9,-,N/A,,Overcast,30,2012-12-09 23:35:00
6:55 PM,37.4,35.6,93,30.17,2.5,NNE,5.8,-,N/A,,Overcast,30,2012-12-09 23:55:00
7:15 PM,37.4,35.6,93,30.15,2.5,NE,5.8,-,N/A,,Overcast,40,2012-12-10 00:15:00
7:35 PM,37.4,35.6,93,30.14,2.0,NNE,5.8,-,N/A,Rain,Light Rain,30,2012-12-10 00:35:00
7:55 PM,37.4,35.6,93,30.14,2.5,NNE,4.6,-,N/A,Rain,Light Rain,30,2012-12-10 00:55:00
8:15 PM,37.4,35.6,93,30.11,3.0,NNE,5.8,-,N/A,Rain,Light Rain,30,2012-12-10 01:15:00
8:35 PM,37.4,35.6,93,30.10,2.5,NNE,5.8,-,0.03,Rain,Light Rain,30,2012-12-10 01:35:00
8:55 PM,37.4,35.6,93,30.09,2.0,North,6.9,-,0.06,Rain,Rain,10,2012-12-10 01:55:00
9:35 PM,37.4,35.6,93,30.08,4.0,ENE,4.6,-,0.11,Rain,Light Rain,70,2012-12-10 02:35:00
9:55 PM,37.4,35.6,93,30.08,4.0,NNE,4.6,-,0.12,Rain,Rain,20,2012-12-10 02:55:00
10:15 PM,37.4,35.6,93,30.07,4.0,ENE,5.8,-,N/A,Rain,Light Rain,70,2012-12-10 03:15:00
10:35 PM,37.4,35.6,93,30.05,4.0,NE,5.8,-,N/A,,Drizzle,40,2012-12-10 03:35:00
11:15 PM,37.4,35.6,93,30.03,4.0,NNE,5.8,-,N/A,,Drizzle,20,2012-12-10 04:15:00
11:35 PM,37.4,35.6,93,30.02,3.0,NNE,4.6,-,0.01,Rain,Light Rain,30,2012-12-10 04:35:00
11:55 PM,39.2,37.4,93,30.01,3.0,NNE,3.5,-,0.01,,Overcast,20,2012-12-10 04:55:00